Location: Wien
(48.2082°N, 16.3738°E)
Time: 07:40:39
(UTC+02:00)

N. Korean satellite - Visible Passes

Search period start: 20 October 2019 00:00
Search period end: 29 October 2019 23:00
Orbit: 455 x 508 km, 97.2° (Epoch: 19 October)

Date Brightness Start Highest point End Pass type
(mag) Time Alt. Az. Time Alt. Az. Time Alt. Az.
20 Oct 10.0 19:01:42 10° SW 19:03:43 15° W 19:05:46 10° NW visible
21 Oct 8.7 06:22:45 10° NNE 06:26:02 32° E 06:29:22 10° SSE visible
21 Oct 9.0 18:35:14 10° SSW 18:38:13 28° W 18:41:17 10° NW visible
22 Oct 9.9 05:58:05 10° NE 06:00:35 17° E 06:03:06 10° SE visible
24 Oct 7.6 06:40:00 10° NNE 06:43:34 52° E 06:47:10 10° S visible
24 Oct 9.8 18:53:21 10° SW 18:55:48 18° W 18:58:16 10° NW visible
25 Oct 9.1 06:15:01 10° NE 06:18:10 27° E 06:21:20 10° SSE visible
25 Oct 8.5 18:27:08 10° SSW 18:30:18 34° W 18:33:33 10° NNW visible
26 Oct 10.1 05:50:32 10° NE 05:52:40 15° E 05:54:49 10° SE visible
27 Oct 10.3 18:12:06 10° WSW 18:13:23 12° W 18:14:41 10° WNW visible
28 Oct 8.1 05:32:09 10° NNE 05:35:41 43° E 05:39:14 10° S visible
28 Oct 9.4 17:45:04 10° SSW 17:47:50 22° W 17:50:38 10° NW visible
29 Oct 9.4 05:07:16 10° NE 05:10:15 23° E 05:13:14 10° SSE visible
29 Oct 8.0 17:19:03 10° S 17:22:22 43° W 17:25:46 10° NNW visible
